Vertical_Velocity
-3 8 -5 -11 -4 -3 1 4 -0 -4 -6 6 -3 -1 -1 -3 11 0 -6 6 -2 6 9 -4 -2 10 5 4 0 -1 -4 -2 -1 -3 -5 -3 -10 -5 -6 -1 6 1 2 -1
14 -4 -10 0 2 4 3 2 -7 -4 -1 7 1 -3 0 1 -4 -14 -4 -14 8 3 6 4 8 8 2 -3 0 1 -3 -5 -4 -3 -2 -4 -2 -2 -5 -3 -1 4 1 -1
-4 -16 3 5 2 9 -1 1 -2 -2 -3 0 3 3 3 11 6 14 17 -18 17 -9 -7 6 4 -1 6 0 -4 -3 -4 -5 -2 -3 -0 3 5 5 0 -4 -1 -1 -0 1
-8 -9 -0 4 -0 5 6 -4 2 2 8 -1 0 -5 -0 2 5 3 3 2 -12 -1 13 4 -0 -2 -3 -3 3 0 -2 -3 -2 -3 -3 -5 -4 -3 -1 -4 -3 -1 -1 -5
-41 3 4 7 -21 4 -18 2 -0 2 2 5 7 10 -18 2 6 4 3 2 -6 8 -4 -6 -4 -11 -3 0 -6 0 1 -0 -1 -4 -4 -2 -3 1 4 2 1 2 0 2
-14 -3 5 -22 -6 -1 -5 10 4 4 5 10 -8 1 -11 -3 -9 5 5 2 -5 3 -10 8 -4 16 -4 -1 2 -2 -1 -3 -4 -4 -4 -2 -2 -2 -2 -0 1 1 -1 1
2 -6 -2 8 15 11 12 8 1 7 11 -12 -2 6 -16 -2 -2 -8 -7 0 -5 -9 12 -3 -0 -2 3 -4 -2 -2 -3 -6 -4 -4 -0 -5 -3 -1 -1 -3 -3 -1 0 -3
1 9 7 -9 -6 -16 -8 -2 -5 -7 -1 -8 0 -4 -21 -4 -1 -1 -1 -7 0 0 -2 -3 -5 -5 -3 -2 -5 -3 -2 2 0 1 -1 1 -1 -5 -5 -2 -3 2 0 -1
5 -13 4 7 -1 6 -12 12 -16 1 -2 2 -4 -5 -1 -1 -3 1 1 9 -3 -4 -3 -5 2 -2 -2 -2 -7 -11 -4 0 1 -3 2 -2 -3 -4 -5 0 2 -1 3 -2
-26 5 -6 -11 23 -2 -3 -9 6 2 1 1 -3 -2 -16 -1 -6 -2 1 -1 6 9 11 2 2 -3 -0 -2 -2 6 -1 -7 -5 1 -3 -0 6 5 -2 2 -2 -5 -3 3
6 12 -45 16 3 -12 10 7 7 -4 -2 -6 -2 -12 -8 -8 -6 -4 -2 -2 -4 1 -2 -1 -4 2 -8 4 -0 -5 -6 -3 -3 3 7 2 -4 -1 4 -3 2 -3 1 -4
-10 6 0 -24 -11 -6 -2 -6 -5 1 -8 -2 -3 -20 1 -1 -5 -1 -3 -2 1 1 -1 -2 -6 -6 3 -6 -1 -10 -2 -4 -5 -3 -2 -4 0 -3 -0 -3 -3 1 -7 -1
-4 -8 1 0 4 -5 4 -1 -2 -1 -1 -4 4 -18 -1 -1 3 -0 -1 -1 8 -4 7 5 7 2 -4 -1 1 -5 1 -3 -2 -0 -1 2 0 -1 -4 -3 0 -2 2 -1
11 0 3 -3 -20 -2 8 3 1 -0 3 -6 -10 -3 -6 -4 1 2 3 0 2 0 -4 -2 6 -1 -4 -3 -6 -3 -1 -4 -3 -2 -3 -3 -3 -5 -6 -1 -2 1 -1 1
12 2 7 -3 -1 2 1 -4 0 2 -8 -3 -11 -2 -3 0 2 0 1 5 0 10 4 -0 -3 -2 -3 -1 -3 2 2 -0 -3 -6 -5 -5 -1 -1 -0 1 -4 -0 -0 -1
-6 -7 1 -1 -1 2 1 -0 0 -0 0 2 1 -2 -3 -0 1 -3 3 -0 2 8 7 13 16 15 9 -2 -3 -1 2 -4 -3 -3 -4 -1 -1 -1 -4 -0 -2 -2 -1 1
9 3 -2 -3 0 -1 -3 -9 -4 -2 0 -7 -0 -11 -0 2 1 0 1 -1 0 0 3 6 5 10 8 -4 -3 -13 -7 11 -2 -1 2 -2 -1 -2 -5 -1 1 -6 -4 2
3 4 1 -2 -3 -3 -17 -0 3 -4 -3 1 2 1 -3 -3 6 12 13 -7 3 9 5 8 4 12 10 9 12 14 12 -7 -2 0 -1 2 -1 -1 1 1 0 -0 0 -5
6 3 -2 2 -0 -3 -1 -2 6 -2 9 6 4 -0 1 6 -12 -4 7 8 8 6 6 3 4 1 3 13 -1 5 3 4 3 -4 -3 -1 -0 2 -0 -3 -2 1 -0 -1
4 3 2 -2 2 0 16 -1 1 2 -1 4 2 3 -0 -3 -11 4 7 3 2 4 1 -1 2 1 -1 6 -1 7 13 1 3 -1 3 5 3 1 -2 2 1 -2 -1 -2
2 -3 2 -1 0 -4 3 3 -2 -22 12 2 3 6 -1 -6 9 24 7 2 3 1 1 0 -3 -2 -3 4 2 3 10 8 13 13 4 3 0 -1 2 5 4 4 2 3
0 3 0 -1 -1 -6 1 -16 -25 8 5 3 1 4 1 5 1 -0 5 -1 -0 -4 -4 -3 -5 -5 -1 -7 2 3 -2 5 1 -0 8 7 2 1 3 2 8 3 6 2
-8 -3 -7 11 6 1 3 5 14 12 6 3 -0 1 6 -0 0 1 -2 0 -1 0 -1 -0 -5 -5 -4 -5 -0 -2 -1 0 0 -3 -5 -4 4 4 4 2 2 6 6 3
-7 -1 1 -6 -8 -0 -4 -5 6 5 3 10 -2 3 -0 4 -2 0 -0 -2 -1 1 -4 2 -4 -3 -3 -2 2 4 6 2 -4 -1 4 0 0 1 3 2 3 4 1 3
10 -5 6 -6 -4 -14 -4 6 2 -8 -3 -6 -3 15 -1 1 1 -0 -3 -3 -3 3 2 2 -5 -1 3 -1 -0 -2 -2 -4 -4 -1 1 -1 1 -0 2 9 3 2 7 -0
3 5 2 -6 -6 13 -19 -11 3 -5 -6 -3 6 -13 5 13 1 7 -2 -2 -2 -4 1 -4 -4 -2 1 -2 -1 -5 -3 0 -2 -3 -1 1 0 3 5 3 -2 2 3 -2
Height
1444 1452 1448 1443 1446 1449 1450 1450 1450 1440 1434 1438 1443 1446 1454 1465 1470 1474 1482 1495 1498 1498 1501 1506 1510 1515 1519 1524 1528 1532 1536 1542 1548 1553 1557 1562 1566 1571 1574 1576 1578 1580 1581 1583
1442 1439 1433 1438 1442 1446 1445 1449 1446 1434 1427 1433 1443 1444 1438 1452 1456 1463 1482 1492 1499 1502 1499 1501 1506 1511 1513 1517 1522 1528 1532 1537 1543 1548 1553 1558 1563 1567 1571 1573 1575 1577 1579 1580
1428 1420 1431 1431 1437 1442 1441 1443 1442 1442 1426 1423 1434 1444 1439 1442 1451 1463 1468 1477 1489 1488 1491 1496 1500 1506 1510 1512 1516 1522 1528 1533 1538 1544 1550 1555 1560 1564 1567 1570 1572 1573 1575 1577
1419 1419 1420 1426 1429 1431 1443 1427 1430 1430 1437 1456 1429 1475 1445 1435 1446 1456 1469 1471 1472 1485 1486 1490 1495 1499 1504 1507 1513 1518 1524 1529 1534 1539 1544 1549 1552 1555 1560 1565 1569 1572 1574 1576
1407 1410 1416 1422 1416 1419 1429 1425 1427 1427 1437 1442 1437 1456 1438 1429 1439 1447 1451 1455 1463 1473 1478 1480 1485 1489 1497 1503 1507 1513 1519 1524 1529 1534 1539 1543 1547 1552 1558 1561 1565 1568 1571 1573
1404 1401 1404 1406 1409 1412 1418 1425 1428 1426 1435 1456 1441 1443 1442 1431 1427 1431 1438 1446 1454 1464 1471 1474 1478 1485 1491 1497 1503 1508 1514 1518 1524 1528 1533 1538 1542 1548 1553 1558 1561 1564 1566 1569
1402 1397 1394 1394 1409 1406 1414 1431 1458 1462 1455 1457 1434 1441 1437 1409 1411 1412 1422 1431 1439 1447 1444 1464 1472 1480 1484 1488 1494 1500 1506 1512 1517 1522 1528 1532 1537 1542 1547 1552 1556 1559 1562 1564
1411 1411 1385 1385 1393 1407 1409 1417 1439 1465 1458 1449 1429 1441 1423 1402 1402 1405 1408 1418 1428 1436 1444 1452 1460 1467 1475 1481 1486 1492 1498 1504 1510 1515 1520 1527 1532 1537 1541 1546 1550 1554 1557 1560
1404 1397 1376 1379 1382 1389 1404 1414 1410 1432 1430 1447 1433 1420 1406 1399 1396 1399 1403 1411 1418 1427 1435 1443 1452 1459 1466 1473 1477 1483 1490 1498 1504 1509 1514 1520 1525 1529 1534 1540 1545 1550 1554 1556
1385 1408 1375 1372 1379 1376 1384 1393 1424 1420 1459 1462 1438 1430 1420 1404 1395 1393 1397 1401 1404 1413 1423 1435 1444 1451 1458 1465 1470 1477 1484 1490 1497 1504 1508 1512 1517 1524 1528 1535 1540 1545 1549 1553
1414 1393 1377 1374 1373 1378 1382 1393 1396 1411 1427 1455 1458 1427 1384 1387 1383 1383 1386 1392 1399 1407 1416 1425 1435 1443 1449 1458 1466 1472 1478 1484 1491 1497 1503 1508 1513 1518 1523 1528 1534 1539 1543 1547
1423 1405 1383 1375 1356 1357 1368 1378 1390 1410 1431 1420 1430 1410 1368 1366 1364 1372 1377 1381 1389 1398 1408 1418 1426 1436 1444 1452 1460 1465 1471 1477 1484 1492 1497 1502 1507 1511 1517 1521 1526 1532 1535 1540
1430 1409 1395 1377 1372 1362 1363 1364 1373 1390 1403 1423 1429 1410 1367 1360 1351 1361 1370 1376 1384 1393 1403 1413 1422 1431 1438 1445 1452 1459 1466 1471 1478 1485 1491 1495 1500 1504 1508 1513 1519 1523 1528 1533
1439 1407 1405 1388 1369 1363 1365 1359 1366 1382 1403 1409 1400 1398 1380 1366 1355 1361 1368 1374 1380 1387 1399 1410 1418 1425 1432 1438 1446 1453 1460 1467 1472 1478 1483 1488 1492 1497 1501 1506 1512 1516 1521 1526
1438 1405 1386 1369 1357 1357 1357 1355 1359 1372 1382 1397 1392 1396 1379 1367 1362 1362 1366 1373 1380 1386 1394 1404 1413 1420 1426 1432 1439 1446 1452 1459 1466 1470 1475 1478 1485 1491 1495 1499 1503 1508 1513 1516
1426 1407 1383 1365 1354 1355 1359 1346 1346 1359 1367 1378 1378 1383 1367 1364 1364 1368 1373 1378 1383 1387 1392 1400 1408 1414 1419 1424 1431 1438 1446 1453 1459 1463 1465 1473 1478 1483 1487 1492 1496 1500 1503 1508
1432 1410 1398 1380 1358 1359 1374 1355 1347 1351 1356 1366 1382 1370 1365 1369 1369 1370 1377 1383 1387 1391 1398 1404 1409 1413 1418 1423 1428 1434 1440 1446 1452 1456 1460 1465 1470 1474 1479 1484 1488 1491 1494 1499
1429 1413 1403 1395 1370 1393 1361 1345 1346 1345 1351 1356 1358 1360 1361 1366 1374 1375 1376 1381 1390 1394 1399 1404 1408 1414 1420 1424 1426 1431 1437 1442 1446 1450 1454 1459 1462 1466 1472 1476 1478 1482 1487 1490
1415 1410 1411 1403 1383 1371 1356 1365 1364 1356 1382 1378 1369 1357 1358 1366 1372 1388 1388 1388 1391 1395 1399 1404 1408 1413 1418 1421 1430 1433 1436 1440 1443 1446 1448 1452 1456 1460 1464 1467 1471 1475 1480 1482
1404 1401 1409 1401 1397 1386 1391 1366 1355 1349 1402 1394 1381 1366 1359 1364 1392 1402 1397 1393 1394 1396 1399 1403 1407 1412 1417 1421 1424 1426 1429 1433 1436 1440 1443 1448 1453 1456 1457 1459 1463 1468 1471 1474
1410 1410 1411 1405 1404 1402 1399 1380 1361 1385 1425 1405 1396 1389 1385 1390 1403 1402 1399 1398 1398 1398 1400 1403 1406 1410 1416 1419 1423 1424 1428 1431 1433 1436 1441 1445 1448 1449 1452 1455 1458 1460 1463 1467
1414 1415 1414 1411 1409 1426 1409 1398 1403 1411 1409 1409 1405 1401 1398 1401 1401 1402 1402 1403 1403 1404 1405 1406 1408 1411 1413 1417 1419 1422 1425 1427 1430 1433 1437 1439 1441 1444 1447 1449 1451 1453 1456 1458
1438 1439 1448 1435 1433 1420 1417 1414 1412 1410 1410 1412 1412 1411 1410 1408 1408 1409 1409 1410 1410 1410 1410 1411 1412 1412 1413 1414 1417 1419 1422 1424 1426 1429 1430 1432 1435 1438 1440 1443 1445 1447 1449 1451
1438 1434 1434 1432 1420 1426 1423 1418 1413 1415 1416 1416 1416 1416 1415 1414 1414 1413 1414 1415 1414 1413 1411 1410 1411 1413 1415 1417 1416 1417 1417 1419 1421 1422 1424 1426 1427 1429 1432 1435 1438 1440 1442 1444
1446 1441 1444 1429 1426 1424 1413 1414 1421 1418 1417 1416 1414 1413 1415 1416 1416 1416 1416 1416 1414 1412 1409 1407 1410 1412 1416 1417 1416 1415 1415 1414 1414 1415 1416 1418 1420 1422 1425 1429 1431 1433 1436 1438
1455 1458 1455 1438 1432 1438 1423 1416 1417 1418 1415 1416 1419 1414 1411 1412 1413 1414 1415 1416 1415 1410 1406 1405 1410 1413 1414 1415 1414 1413 1413 1413 1413 1412 1413 1413 1414 1416 1419 1421 1423 1427 1429 1433